This is the latest recevied weather packets stored in our database for station/object OE6ACM-14. If no packets are shown the sender has not sent any weather packets the latest 10 day(s).
| Time | Temp. | Humidity | Pressure | Rain* | Wind** | Luminosity | Snow |
|---|---|---|---|---|---|---|---|
| 1787938224 | 24.44° C | 59% | 924.7 hPa | - | - | - | - |
| 1787937924 | 24.44° C | 57% | 924.4 hPa | - | - | - | - |
| 1787937624 | 25° C | 55% | 924.3 hPa | - | - | - | - |
| 1787937324 | 25.56° C | 55% | 924.2 hPa | - | - | - | - |
| 1787937024 | 25.56° C | 54% | 924.1 hPa | - | - | - | - |
| 1787936724 | 26.11° C | 53% | 924.4 hPa | - | - | - | - |
| 1787936424 | 26.67° C | 51% | 924.3 hPa | - | - | - | - |
| 1787936124 | 26.67° C | 51% | 924.2 hPa | - | - | - | - |
| 1787935824 | 26.67° C | 51% | 923.9 hPa | - | - | - | - |
| 1787935524 | 26.11° C | 53% | 923.8 hPa | - | - | - | - |
| 1787935224 | 26.11° C | 53% | 923.6 hPa | - | - | - | - |
| 1787934924 | 26.11° C | 52% | 923.5 hPa | - | - | - | - |
| 1787934624 | 26.67° C | 51% | 923.6 hPa | - | - | - | - |
| 1787934324 | 26.67° C | 51% | 923.7 hPa | - | - | - | - |
| 1787934024 | 27.22° C | 50% | 923.8 hPa | - | - | - | - |
| 1787933724 | 27.22° C | 51% | 924 hPa | - | - | - | - |
| 1787933424 | 27.22° C | 50% | 924 hPa | - | - | - | - |
| 1787933124 | 27.22° C | 50% | 924.1 hPa | - | - | - | - |
| 1787932824 | 27.78° C | 48% | 924.1 hPa | - | - | - | - |
| 1787932524 | 28.89° C | 46% | 924.2 hPa | - | - | - | - |
| 1787932224 | 28.89° C | 46% | 924.2 hPa | - | - | - | - |
| 1787931924 | 28.89° C | 46% | 924.2 hPa | - | - | - | - |
| 1787931624 | 29.44° C | 44% | 924.2 hPa | - | - | - | - |
| 1787931324 | 29.44° C | 44% | 924.2 hPa | - | - | - | - |
| 1787931024 | 29.44° C | 45% | 924.1 hPa | - | - | - | - |
* Rain since midnight (hover to see other rain measurements)
** Current wind speed in m/s (hover to see current wind gust speed)